[[{"header":{"parameterUnit":"m.s-1","parameterCategory":1,"la1":30.2991,"la2":30.254,"lo1":-89.0895,"lo2":-89.0444,"dy":0.0017,"dx":0.0017,"nx":28,"ny":28,"refTime":"2024-08-29T03:00:00:Z","depth":0,"parameterNumber":2,"parameterNumberName":"U-component_of_WINDS"},"data":[0,0,0,0,0,0,0,0,0,0,0,0,0,0,0,0,0,0,0,0,0,0,0,0,0,0,0,0,0,0,0,0,0,0,0,0,0,0,0,0,0,0,0,0,0,0,0,0,0,0,0,0,0,0,0,0,0,0,-2.6475,-2.6475,0,-2.6476,-2.6476,-2.6476,-2.6428,-2.6427,-2.6426,-2.6424,-2.6425,-2.6426,-2.6427,0,0,0,0,0,0,0,0,0,0,0,0,0,-2.6432,-2.6433,-2.6475,-2.6475,-2.6475,-2.6476,-2.6476,-2.6476,-2.6428,-2.6427,-2.6425,-2.6424,-2.6424,-2.6426,-2.6427,0,0,0,0,0,0,0,0,0,0,0,0,0,-2.6444,-2.6434,-2.6475,-2.6452,-2.645,-2.6476,-2.6476,-2.6476,-2.6429,-2.6427,-2.6425,-2.6423,-2.6424,-2.6426,-2.6427,-2.6477,0,0,-2.6433,-2.6434,0,0,0,0,0,0,0,0,-2.6443,-2.6445,-2.6455,-2.6453,-2.6451,-2.645,-2.6461,-2.6476,-2.6429,-2.6437,-2.6424,-2.6422,-2.6435,-2.6436,-2.644,-2.6477,-2.6477,-2.6433,-2.6434,-2.6435,-2.6436,0,0,0,0,0,0,0,-2.6442,-2.6445,-2.6476,-2.6455,-2.6453,-2.6441,-2.644,-2.6464,-2.6446,-2.6436,-2.6432,-2.6433,-2.6433,-2.6438,-2.644,-2.6477,-2.6433,-2.6435,-2.6436,-2.6437,-2.6554,-2.6556,0,0,0,0,0,0,-2.6445,-2.6445,-2.6476,-2.6476,-2.6442,-2.6443,-2.6443,-2.6452,-2.6446,-2.6443,-2.6435,-2.6431,-2.6436,-2.6438,-2.6439,-2.6496,-2.6435,-2.6437,-2.6438,-2.6552,-2.6554,-2.6556,0,0,0,0,0,0,-2.6444,-2.6448,-2.6476,-2.6459,-2.6462,-2.6446,-2.6457,-2.6453,-2.6458,-2.6445,-2.6442,-2.6443,-2.6435,-2.6437,-2.6468,-2.6495,-2.6437,-2.6439,-2.6549,-2.6552,-2.6555,-2.6609,0,0,0,0,0,0,-2.6443,-2.6448,-2.6467,-2.646,-2.6463,-2.6504,-2.6459,-2.6455,-2.6462,-2.6456,-2.6452,-2.6449,-2.6433,-2.6465,-2.647,-2.6496,-2.6441,-2.6547,-2.6551,-2.6554,-2.6605,-2.6614,-2.6622,0,0,0,0,0,-2.6442,-2.6482,-2.6468,-2.6472,-2.6486,-2.6506,-2.6507,-2.6488,-2.6464,-2.6482,-2.6474,-2.645,-2.6492,-2.6469,-2.6473,-2.6501,-2.6545,-2.655,-2.6554,-2.6601,-2.6612,-2.6621,0,0,0,0,0,0,-2.6492,-2.6481,-2.6465,-2.6504,-2.6506,-2.6498,-2.652,-2.65,-2.6509,-2.6504,-2.648,-2.6479,-2.6514,-2.6511,-2.6485,-2.6548,-2.6514,-2.652,-2.6549,-2.6559,-2.6567,-2.6566,-2.6442,0,0,0,0,0,-2.6508,-2.6525,-2.6514,-2.655,-2.6552,-2.6536,-2.6544,-2.6529,-2.653,-2.6531,-2.6525,-2.6527,-2.654,-2.655,-2.6562,-2.6605,-2.6603,-2.6627,-2.6635,-2.6642,-2.6646,-2.6668,-2.6678,-2.6571,-2.6571,-2.6571,0,0,-2.654,-2.6536,-2.6548,-2.656,-2.656,-2.6578,-2.6537,-2.6558,-2.6571,-2.6534,-2.6562,-2.6558,-2.6559,-2.6596,-2.6612,-2.6595,-2.6676,-2.6648,-2.6653,-2.6654,-2.6674,-2.6684,-2.6693,-2.6575,-2.6574,-2.6573,0,0,-2.6608,-2.6607,-2.6636,-2.6637,-2.6638,-2.6627,-2.6634,-2.6629,-2.6625,-2.6653,-2.6625,-2.6641,-2.6665,-2.6666,-2.667,-2.674,-2.6717,-2.6745,-2.6787,-2.6808,-2.6817,-2.6824,-2.6848,-2.6856,-2.675,-2.675,-2.675,0,-2.6648,-2.6674,-2.6654,-2.6676,-2.6682,-2.665,-2.6679,-2.6681,-2.6686,-2.669,-2.6671,-2.67,-2.6699,-2.6735,-2.6752,-2.6757,-2.6764,-2.6744,-2.6817,-2.6824,-2.6831,-2.6853,-2.6862,-2.6753,-2.6753,-2.6752,-2.6752,0,-2.6722,-2.6741,-2.6765,-2.677,-2.6778,-2.6804,-2.6788,-2.6799,-2.6784,-2.6776,-2.6805,-2.6802,-2.6812,-2.682,-2.6806,-2.6855,-2.6844,-2.6822,-2.6786,-2.6845,-2.6865,-2.6873,-2.6757,-2.6756,-2.6755,-2.6755,0,0,-2.682,-2.6814,-2.6823,-2.6825,-2.6824,-2.6837,-2.6862,-2.6873,-2.6882,-2.6887,-2.6906,-2.6928,-2.6907,-2.6912,-2.6897,-2.6917,-2.697,-2.6892,-2.6891,-2.6905,-2.7023,-2.7039,-2.7049,-2.6956,-2.6958,-2.6959,-2.7023,0,-2.6885,-2.6926,-2.6909,-2.6952,-2.6968,-2.6939,-2.696,-2.6962,-2.6955,-2.6968,-2.696,-2.6975,-2.6947,-2.695,-2.6968,-2.696,-2.6993,-2.6956,-2.6973,-2.6974,-2.6972,-2.706,-2.7076,-2.7136,-2.7031,-2.7032,-2.7033,0,-2.6965,-2.6973,-2.7017,-2.7013,-2.7019,-2.7038,-2.7046,-2.706,-2.7061,-2.7054,-2.706,-2.7041,-2.7065,-2.7032,-2.7063,-2.7038,-2.7045,-2.7042,-2.7044,-2.7043,-2.7006,-2.706,-2.7155,-2.7163,-2.7045,-2.7044,-2.7044,0,-2.703,-2.7052,-2.7081,-2.7083,-2.7079,-2.7094,-2.7093,-2.7092,-2.7099,-2.7107,-2.7111,-2.7121,-2.7126,-2.7135,-2.7119,-2.7097,-2.7153,-2.7118,-2.7147,-2.7148,-2.7159,-2.7158,-2.7254,-2.7167,-2.7166,-2.7166,-2.7166,0,-2.7102,-2.713,-2.711,-2.7127,-2.7158,-2.7139,-2.7169,-2.7165,-2.7165,-2.7181,-2.7157,-2.7173,-2.7152,-2.7166,-2.7154,-2.7182,-2.7185,-2.718,-2.7176,-2.7181,-2.7181,-2.7183,-2.7178,-2.7169,-2.7168,-2.7168,-2.7167,0,-2.7179,-2.7167,-2.7196,-2.719,-2.7189,-2.7212,-2.7207,-2.7223,-2.7215,-2.7236,-2.7239,-2.7227,-2.7242,-2.7228,-2.7242,-2.7234,-2.727,-2.7262,-2.727,-2.7267,-2.7296,-2.7293,-2.7395,-2.7407,-2.7314,-2.7314,-2.7315,0,-2.7225,-2.7246,-2.7242,-2.7252,-2.7252,-2.7267,-2.7275,-2.7257,-2.7266,-2.7269,-2.7284,-2.7298,-2.7307,-2.7332,-2.7324,-2.7335,-2.7325,-2.736,-2.7326,-2.733,-2.7323,-2.7322,-2.7323,-2.7367,-2.7368,-2.7369,-2.7369,0,-2.7308,-2.7301,-2.7313,-2.7322,-2.7332,-2.7339,-2.7343,-2.7352,-2.7334,-2.7345,-2.736,-2.7367,-2.7382,-2.7395,-2.7404,-2.7402,-2.7383,-2.7381,-2.7387,-2.7392,-2.7395,-2.7392,-2.7287,-2.7378,-2.7377,-2.7376,-2.7376,-2.7375,-2.737,-2.7387,-2.7387,-2.74,-2.7402,-2.7407,-2.7422,-2.7416,-2.7428,-2.7439,-2.7428,-2.7446,-2.7447,-2.7456,-2.7457,-2.7471,-2.7456,-2.7467,-2.7469,-2.7471,-2.7475,-2.7394,-2.7473,-2.7473,-2.7472,-2.7472,-2.7472,0,-2.745,-2.7449,-2.7462,-2.7469,-2.748,-2.7462,-2.7466,-2.7476,-2.7492,-2.7495,-2.7505,-2.7522,-2.7535,-2.7528,-2.7539,-2.7551,-2.7542,-2.7554,-2.7552,-2.7552,-2.7488,-2.748,-2.7561,-2.7561,-2.7561,-2.7561,-2.7561,-2.7561,-2.7493,-2.752,-2.7513,-2.7541,-2.754,-2.7557,-2.7561,-2.7566,-2.7568,-2.7588,-2.7598,-2.7594,-2.7593,-2.7603,-2.7614,-2.7612,-2.7616,-2.7631,-2.7626,-2.7566,-2.7557,-2.7548,-2.7541,-2.7633,-2.7633,-2.7688,-2.7688,-2.7689]},{"header":{"parameterUnit":"m.s-1","parameterCategory":1,"la1":30.2991,"la2":30.254,"lo1":-89.0895,"lo2":-89.0444,"dy":0.0017,"dx":0.0017,"nx":28,"ny":28,"refTime":"2024-08-29T03:00:00:Z","depth":0,"parameterNumber":3,"parameterNumberName":"V-component_of_WINDS"},"data":[0,0,0,0,0,0,0,0,0,0,0,0,0,0,0,0,0,0,0,0,0,0,0,0,0,0,0,0,0,0,0,0,0,0,0,0,0,0,0,0,0,0,0,0,0,0,0,0,0,0,0,0,0,0,0,0,0,0,0.921,0.921,0,0.9164,0.9163,0.9163,0.9093,0.9092,0.9091,0.909,0.9042,0.9041,0.9041,0,0,0,0,0,0,0,0,0,0,0,0,0,0.924,0.924,0.921,0.921,0.9209,0.9164,0.9163,0.9162,0.9093,0.9092,0.909,0.9089,0.9042,0.9041,0.9041,0,0,0,0,0,0,0,0,0,0,0,0,0,0.9214,0.924,0.921,0.9169,0.9165,0.9164,0.9163,0.9162,0.9094,0.9092,0.909,0.9088,0.9042,0.9041,0.9041,0.9077,0,0,0.9041,0.9041,0,0,0,0,0,0,0,0,0.9215,0.9213,0.9176,0.9172,0.9167,0.9132,0.9156,0.9133,0.9094,0.9121,0.909,0.9087,0.9073,0.907,0.9066,0.9074,0.9072,0.9041,0.904,0.904,0.904,0,0,0,0,0,0,0,0.9217,0.9214,0.9192,0.9175,0.917,0.9153,0.9147,0.9151,0.9108,0.9118,0.9113,0.9109,0.9071,0.9066,0.9064,0.9072,0.9041,0.904,0.904,0.904,0.9109,0.9111,0,0,0,0,0,0,0.9225,0.9216,0.9193,0.919,0.9187,0.9154,0.9148,0.9145,0.9108,0.91,0.911,0.9106,0.9067,0.9064,0.9062,0.9102,0.904,0.904,0.904,0.9107,0.911,0.9112,0,0,0,0,0,0,0.9226,0.9224,0.9195,0.9202,0.9197,0.9156,0.9154,0.9145,0.9141,0.9101,0.9093,0.9113,0.9066,0.9062,0.9074,0.9099,0.904,0.904,0.9105,0.9108,0.9111,0.9182,0,0,0,0,0,0,0.9227,0.9224,0.9237,0.9203,0.9197,0.9208,0.9155,0.9146,0.9141,0.9134,0.9102,0.9095,0.9064,0.9075,0.9074,0.9098,0.904,0.9102,0.9106,0.911,0.9177,0.9187,0.9196,0,0,0,0,0,0.9228,0.9258,0.9238,0.9236,0.9212,0.9209,0.9206,0.9169,0.9143,0.9156,0.9131,0.9096,0.9097,0.9076,0.9075,0.91,0.9101,0.9105,0.9109,0.9173,0.9185,0.9195,0,0,0,0,0,0,0.9296,0.9253,0.923,0.925,0.9234,0.9198,0.9212,0.9183,0.9174,0.9168,0.9123,0.9116,0.9134,0.9118,0.9096,0.9133,0.9094,0.9098,0.9143,0.9154,0.9163,0.9167,0.904,0,0,0,0,0,0.9314,0.9315,0.9277,0.9299,0.9292,0.9254,0.9251,0.9225,0.9206,0.9199,0.9175,0.9158,0.9155,0.9153,0.9148,0.9175,0.9168,0.9191,0.92,0.9208,0.9212,0.9227,0.9238,0.9126,0.9126,0.9126,0,0,0.9349,0.9326,0.9329,0.9312,0.9296,0.9299,0.9248,0.9253,0.9255,0.9199,0.9209,0.9191,0.917,0.919,0.9198,0.9177,0.9242,0.9214,0.922,0.922,0.9233,0.9244,0.9253,0.9129,0.9129,0.9128,0,0,0.9416,0.9398,0.9415,0.9401,0.9378,0.9353,0.9357,0.9326,0.9312,0.9321,0.928,0.9282,0.9276,0.9263,0.9256,0.9321,0.9289,0.932,0.9368,0.9383,0.9392,0.94,0.9424,0.9433,0.9325,0.9325,0.9325,0,0.9463,0.9466,0.9427,0.9435,0.9429,0.9379,0.9396,0.9384,0.9361,0.9359,0.9336,0.933,0.9311,0.9329,0.9345,0.934,0.9344,0.9323,0.9394,0.9401,0.9408,0.943,0.944,0.9329,0.9328,0.9328,0.9327,0,0.9526,0.9528,0.9544,0.9524,0.952,0.9533,0.9496,0.9497,0.9471,0.9449,0.946,0.9437,0.9427,0.9429,0.9403,0.9443,0.9431,0.9402,0.9362,0.9423,0.9444,0.9452,0.9334,0.9333,0.9332,0.9331,0,0,0.9633,0.9592,0.9599,0.959,0.9562,0.9564,0.9575,0.9566,0.9568,0.9554,0.9563,0.956,0.9534,0.9526,0.9498,0.9512,0.9566,0.9481,0.948,0.9498,0.9611,0.9634,0.9644,0.9545,0.9547,0.9548,0.9613,0,0.9695,0.9711,0.9677,0.9702,0.9705,0.9659,0.9668,0.9653,0.9633,0.9633,0.961,0.961,0.9574,0.9569,0.9581,0.9557,0.9588,0.9552,0.9554,0.9555,0.9562,0.9655,0.9678,0.9741,0.9621,0.9622,0.9623,0,0.9768,0.976,0.9785,0.9758,0.9758,0.9767,0.9757,0.9757,0.974,0.9724,0.9717,0.9685,0.9695,0.9657,0.967,0.9646,0.9645,0.9634,0.9636,0.9635,0.9593,0.9658,0.976,0.977,0.9635,0.9634,0.9633,0,0.9846,0.984,0.9855,0.9848,0.9817,0.9825,0.9812,0.9792,0.979,0.9781,0.9779,0.9772,0.9768,0.9763,0.9731,0.9706,0.9749,0.9708,0.9738,0.9739,0.9749,0.9749,0.9853,0.9747,0.9747,0.9747,0.9747,0,0.9918,0.9936,0.9889,0.9899,0.9918,0.9879,0.9899,0.9881,0.9865,0.9871,0.983,0.9837,0.9794,0.9796,0.9771,0.9787,0.9785,0.9774,0.9767,0.9778,0.9779,0.9777,0.9772,0.9749,0.9749,0.9748,0.9748,0,1.0008,0.9977,0.999,0.996,0.9953,0.9968,0.9942,0.995,0.9928,0.9936,0.9936,0.9901,0.9902,0.987,0.9863,0.9847,0.9874,0.9859,0.988,0.9876,0.9908,0.9906,1.0015,1.0028,0.9913,0.9914,0.9915,0,1.0056,1.0069,1.0041,1.0042,1.0031,1.0033,1.0031,0.9994,0.9993,0.9975,0.9986,0.9983,0.9979,0.9982,0.9957,0.9952,0.9938,0.9976,0.9936,0.9948,0.994,0.994,0.9941,0.9985,0.9986,0.9987,0.9988,0,1.0147,1.0131,1.0129,1.0123,1.0121,1.0114,1.0104,1.0107,1.0067,1.0068,1.0068,1.0066,1.006,1.0059,1.005,1.0037,1.0007,1.0001,1.0008,1.0019,1.0032,1.0027,0.9904,0.9999,0.9998,0.9997,0.9996,0.9996,1.0218,1.0228,1.021,1.0209,1.0198,1.0191,1.0197,1.0177,1.0176,1.0169,1.0147,1.0152,1.0136,1.0121,1.0112,1.0115,1.0096,1.0106,1.0108,1.0111,1.0118,1.0031,1.0113,1.0113,1.0113,1.0112,1.0112,0,1.0307,1.0294,1.0294,1.0282,1.0282,1.0254,1.0242,1.0244,1.0249,1.0236,1.0234,1.0235,1.0234,1.021,1.0206,1.0214,1.02,1.0214,1.0213,1.0211,1.0135,1.013,1.0226,1.0226,1.0225,1.0225,1.0225,1.0225,1.0353,1.0369,1.0352,1.0363,1.0349,1.0354,1.035,1.0343,1.0333,1.0337,1.0336,1.032,1.0303,1.0299,1.0297,1.029,1.0291,1.031,1.0299,1.0227,1.0216,1.0206,1.0201,1.031,1.031,1.0375,1.0375,1.0376]}]]